Wind_Speed
51 50 50 51 54 56 57 56 55 55 55 54 54 56 59 61 61 64 66 61 54 53 56 60 60 59 60 61 61 62 60 54 55 60 58 57 59 59 55 53 55 55 54 53 52 47 40 34 28 26 30 32 33 32 28 31 38 44 51 56 58 57 56 52 45 40 38 39 40 40 41 41 41 42 41 40 38 37 34 32 31 32 34 36 36 32
53 53 54 56 58 59 59 57 57 58 57 56 59 60 58 58 59 61 65 61 52 50 55 59 58 58 59 60 60 62 62 57 54 60 62 60 61 61 59 57 57 57 55 53 51 46 37 29 22 15 15 25 33 33 29 32 39 43 51 57 59 57 54 55 54 47 40 38 37 36 37 38 39 41 41 38 37 37 34 33 35 37 37 38 36 32
58 59 60 61 60 59 58 57 59 60 59 59 61 58 55 56 56 57 62 61 54 50 54 59 60 59 59 59 60 61 64 62 55 57 64 63 62 62 60 60 58 56 56 57 57 52 36 26 23 17 14 13 27 36 37 37 39 43 50 57 62 63 59 57 58 53 43 38 36 34 35 37 40 42 41 39 39 40 36 33 35 36 36 36 36 35
60 61 63 62 61 60 59 59 61 62 59 58 58 55 54 55 54 57 61 61 55 51 53 60 62 60 60 61 62 62 65 66 58 56 62 63 63 62 60 59 57 54 54 55 56 53 42 32 27 21 20 16 20 33 38 39 42 46 50 56 62 67 67 63 60 57 48 41 40 38 36 38 40 43 43 42 43 43 41 37 35 35 33 32 33 34
61 62 62 61 61 60 60 60 61 59 56 55 55 53 53 54 54 57 61 60 56 54 56 62 62 60 61 62 63 64 65 67 62 57 59 61 61 61 59 56 53 52 50 49 51 50 45 40 33 25 22 22 25 30 32 36 39 44 51 57 61 65 69 68 65 62 56 49 46 44 40 39 39 40 41 42 41 41 40 37 35 35 35 35 36 38
61 62 61 59 59 59 59 59 57 55 54 53 53 52 54 55 55 56 61 61 58 58 60 62 62 62 63 63 65 66 65 66 63 58 57 60 60 59 58 54 50 50 47 47 50 50 46 42 38 30 27 28 30 28 28 34 36 40 50 57 60 63 67 70 69 66 64 60 55 51 48 45 43 42 41 40 39 39 38 38 39 40 41 41 42 44
59 61 58 56 56 56 56 54 52 53 53 52 52 53 54 54 54 56 60 61 59 60 62 63 64 63 63 64 66 66 64 64 64 60 58 58 58 57 56 52 48 48 45 44 48 48 46 45 41 36 32 31 32 28 26 33 35 38 49 57 60 62 65 70 71 68 67 65 62 58 56 53 49 47 45 43 43 43 43 44 46 47 46 45 43 44
55 57 53 52 55 54 52 52 51 52 52 52 53 53 52 52 54 57 60 61 61 62 63 64 65 63 62 64 65 64 62 61 62 61 58 57 56 54 52 49 47 46 43 42 45 47 47 47 46 43 38 35 34 29 26 30 34 38 45 55 60 61 63 67 70 70 67 66 65 64 62 60 56 54 51 48 47 47 47 49 49 48 47 45 45 47
52 53 50 51 53 51 50 51 52 52 50 52 53 51 51 52 54 57 59 59 61 62 61 63 66 62 59 60 62 61 59 59 61 59 56 54 52 52 50 45 43 43 42 42 44 46 46 47 51 50 44 40 38 34 28 29 34 40 44 52 59 62 63 65 67 69 67 64 65 65 63 59 58 57 56 54 53 52 51 51 51 49 47 47 50 51
51 52 49 49 51 50 50 52 51 50 49 51 52 50 51 53 55 57 57 58 61 61 59 60 64 61 55 55 58 58 56 55 57 56 52 50 50 49 46 41 37 39 41 42 44 45 44 45 51 53 48 45 45 38 28 27 36 43 47 52 56 61 63 64 65 66 65 64 63 64 62 57 55 56 54 55 57 57 56 55 53 52 52 55 57 53
52 52 48 48 50 50 50 51 50 49 48 51 51 50 52 54 56 57 56 58 59 58 57 59 62 58 51 51 53 54 53 49 48 47 44 43 42 39 38 36 34 36 40 43 44 44 43 42 46 51 51 49 46 39 29 29 39 44 48 52 54 58 62 64 65 64 64 64 63 63 62 58 56 55 53 54 56 58 58 57 55 54 55 59 60 55
51 49 46 48 50 50 50 49 48 48 48 50 52 52 53 54 55 55 55 57 57 55 56 57 57 53 48 49 48 46 46 43 40 39 36 35 34 31 31 32 31 33 38 42 42 40 40 42 43 46 49 50 46 40 34 34 43 47 47 51 54 56 60 62 64 63 63 64 64 63 62 60 58 56 54 54 55 57 57 55 55 55 56 58 59 57
49 47 47 49 49 49 48 47 48 48 48 50 53 53 53 54 54 53 54 57 55 53 55 54 52 50 47 45 41 36 36 35 36 37 32 28 27 27 26 25 26 31 35 39 40 35 34 38 40 41 45 49 46 40 37 38 44 48 47 49 52 55 59 60 59 60 62 64 63 62 63 63 61 59 59 59 58 60 59 56 56 59 59 59 59 58
48 47 46 47 48 48 47 48 49 49 49 51 53 52 52 53 53 53 55 56 53 51 53 51 49 46 42 38 34 32 32 33 35 36 32 27 24 26 25 22 25 31 33 36 38 36 35 36 37 39 43 46 45 40 39 39 42 44 43 44 47 54 59 58 56 56 59 63 62 62 63 65 66 64 63 63 61 61 61 58 57 60 63 62 61 60
48 47 47 48 50 49 48 49 50 50 49 50 52 52 52 53 54 54 55 54 52 50 49 48 45 40 34 29 29 30 31 33 32 29 29 28 27 30 29 25 27 31 32 33 34 33 33 32 33 38 42 46 46 43 42 43 44 44 43 43 45 50 57 58 58 57 58 62 63 60 60 63 68 69 68 68 66 64 64 63 62 63 64 65 65 65
50 49 50 51 51 49 48 49 49 48 48 49 51 51 51 53 54 54 55 54 52 49 46 44 42 37 29 25 27 30 32 32 30 27 26 26 27 31 31 28 28 30 31 32 30 27 25 22 24 32 38 42 46 48 48 48 47 46 46 44 43 46 52 57 59 59 59 61 63 60 56 57 62 66 67 68 69 69 69 69 69 69 69 69 70 70
50 50 51 51 48 47 48 50 49 47 48 49 50 50 51 53 53 53 54 54 52 48 43 40 38 35 31 26 23 27 31 31 28 28 29 29 28 27 28 29 27 26 26 26 23 21 18 15 16 23 29 34 40 43 44 42 42 42 41 40 39 40 46 53 58 59 59 61 64 62 59 56 56 60 63 64 65 66 67 66 66 67 68 69 69 69
49 50 51 48 46 47 50 50 49 47 48 50 50 51 53 54 53 53 53 53 51 46 41 36 32 30 29 25 22 24 25 23 23 24 25 27 27 24 25 27 27 26 22 18 16 15 15 15 15 17 19 22 26 28 26 24 26 28 29 30 32 34 38 44 50 54 58 62 65 65 63 59 56 56 59 62 64 66 67 68 67 66 67 68 69 69
50 50 50 49 48 50 51 51 50 48 49 50 50 52 54 54 54 53 52 51 49 43 36 32 29 26 23 23 26 27 23 18 18 18 18 21 24 24 23 23 25 28 27 25 24 21 22 21 19 17 16 16 18 17 16 16 18 20 22 23 26 31 36 39 39 41 46 51 56 60 60 59 58 56 55 57 62 65 68 70 70 69 68 67 67 68
52 51 51 51 51 52 52 51 51 50 51 52 52 53 54 54 55 53 51 50 48 40 32 30 30 26 21 22 28 28 23 19 19 18 17 21 24 26 25 21 21 26 29 30 31 32 32 31 27 25 23 21 19 17 19 24 27 26 26 28 33 37 40 41 39 36 36 38 42 48 51 53 54 55 54 53 54 57 60 63 65 66 65 64 64 64
54 52 53 53 52 53 53 52 53 54 54 53 53 54 54 53 54 52 50 49 45 37 31 29 27 22 19 23 29 29 25 23 23 23 23 25 26 27 26 22 21 25 28 28 30 34 35 34 34 33 30 27 24 22 25 30 31 31 33 36 41 41 39 39 39 38 38 38 37 37 40 43 46 48 50 50 49 49 52 56 59 61 62 62 61 60
58 55 55 53 52 53 53 53 55 56 54 53 54 55 54 53 53 52 50 46 39 32 29 29 25 18 18 23 28 31 30 28 29 29 27 27 27 26 25 25 25 25 24 23 28 36 38 36 37 36 35 34 31 29 32 35 36 39 42 42 42 42 40 37 35 37 39 39 38 35 34 37 40 42 45 47 47 46 48 52 55 56 58 58 57 57
62 58 57 56 55 54 54 55 57 56 54 54 54 54 54 53 53 52 50 44 36 31 29 31 29 22 22 25 27 30 32 32 33 34 32 30 30 30 28 29 29 26 23 23 29 38 42 41 40 39 36 36 34 32 37 42 43 43 45 45 42 42 45 41 35 35 37 36 36 37 35 36 38 38 37 39 42 45 46 49 53 53 55 56 57 57
63 59 59 58 57 57 57 57 57 56 55 54 54 54 53 52 50 49 47 42 36 32 28 28 29 27 28 30 29 31 34 34 34 35 34 34 34 34 32 33 33 30 28 29 31 36 42 45 45 43 40 38 37 37 40 46 48 46 44 44 44 43 47 48 42 38 39 38 38 38 35 33 34 35 34 32 35 39 42 46 51 53 55 56 56 56
62 60 60 58 57 57 57 57 57 56 55 55 54 51 50 49 47 45 42 36 32 31 29 28 27 26 30 32 30 31 34 36 36 36 35 35 35 36 36 36 36 33 31 31 33 36 44 49 48 48 45 42 41 40 42 48 50 49 45 44 46 45 47 50 48 43 45 46 44 41 38 33 34 38 39 35 31 33 36 40 44 46 49 51 51 51
63 61 60 58 57 57 57 56 56 55 55 54 50 47 46 47 46 42 35 29 28 29 30 30 28 27 32 35 33 32 34 35 37 38 38 38 37 37 37 36 36 35 32 32 35 38 44 49 48 49 48 46 43 40 41 47 50 50 47 45 48 48 48 49 47 45 48 49 44 42 40 38 37 41 42 39 35 34 36 37 38 39 41 43 44 46
64 62 60 59 58 58 56 55 55 55 54 52 48 47 46 44 42 37 31 27 27 26 25 26 30 32 35 37 36 34 35 37 38 39 41 42 41 40 39 37 37 36 34 34 38 41 44 48 49 48 49 48 45 42 41 45 49 50 48 47 48 49 48 48 47 47 50 49 45 43 41 40 40 41 42 42 40 40 39 39 39 37 36 35 36 37
64 62 61 60 59 58 56 54 53 53 51 48 46 46 44 40 38 35 30 30 30 26 21 23 30 35 36 37 37 36 37 37 38 39 41 41 42 42 42 40 38 38 36 36 41 45 47 48 49 50 49 47 46 46 45 45 49 51 51 49 49 49 48 48 49 51 51 49 47 45 43 42 42 43 43 44 44 45 44 43 41 39 37 35 33 31
64 64 62 60 59 57 56 54 52 51 48 46 46 46 44 40 36 33 30 30 30 28 26 26 31 36 38 39 40 40 38 36 35 37 39 40 40 41 42 42 39 38 37 37 42 49 50 50 51 51 50 48 46 47 49 48 48 51 52 51 50 49 49 49 49 50 50 49 49 47 45 44 44 43 43 44 44 45 44 43 43 42 40 38 35 32
63 63 63 61 58 58 57 55 54 52 49 47 47 47 44 38 33 32 30 30 30 29 30 32 34 36 38 40 40 40 38 37 35 35 36 38 39 39 40 42 40 38 37 38 41 48 52 53 52 52 52 51 50 49 50 50 48 49 51 51 50 50 51 51 48 47 48 49 50 50 49 46 44 44 45 45 44 43 43 42 42 42 41 38 36 33
61 61 60 59 58 58 57 54 52 50 46 44 46 46 42 34 29 27 26 28 30 30 31 34 36 37 39 41 42 40 38 37 37 35 35 37 38 39 39 41 40 38 38 39 41 47 53 55 55 54 54 55 55 52 50 50 49 50 51 50 49 50 53 52 48 44 45 48 49 50 50 48 45 45 46 46 47 45 44 43 42 42 41 39 37 36
61 60 60 60 59 58 57 54 52 50 47 46 47 47 40 31 28 27 26 26 28 30 32 33 36 39 41 43 44 44 42 40 39 38 37 36 37 38 39 39 40 39 39 40 42 46 53 57 57 57 56 56 57 56 54 52 51 51 52 51 48 50 54 54 50 44 40 43 46 47 49 50 49 47 46 48 49 49 47 46 45 44 43 42 41 41
62 62 62 62 60 59 58 56 53 52 52 52 51 49 41 36 35 35 34 32 31 33 35 36 39 42 44 44 44 45 44 42 40 39 38 35 34 36 38 39 39 39 40 41 42 46 51 56 59 61 61 60 59 58 57 55 53 52 54 53 51 51 53 55 55 50 42 40 43 46 47 48 49 49 48 49 51 51 51 50 48 47 46 46 45 45
65 65 64 62 61 61 59 57 54 53 54 55 53 50 45 43 44 42 41 41 41 40 40 41 43 45 46 45 45 45 44 43 42 41 39 37 35 34 37 39 39 39 39 41 43 45 49 55 58 61 63 63 62 61 60 58 55 54 54 55 54 53 53 54 56 56 49 43 41 43 44 46 47 47 47 48 50 52 53 52 51 51 50 49 48 48
67 66 64 63 62 61 60 58 57 57 57 56 54 52 50 48 50 49 48 49 49 47 46 47 48 49 48 47 47 46 45 44 44 43 43 42 40 38 37 38 39 40 40 42 43 45 49 54 57 59 61 63 63 63 62 60 58 56 55 56 57 57 56 56 56 58 56 49 44 43 43 44 44 45 46 48 50 51 52 51 52 52 52 51 51 50
68 67 65 63 62 61 61 60 60 59 58 57 54 53 52 51 52 54 54 55 55 52 50 51 52 53 51 49 49 49 47 45 43 44 44 43 42 42 40 38 39 41 42 42 43 45 48 52 56 58 60 62 63 63 63 61 59 58 57 57 57 58 60 60 59 59 57 53 50 48 47 46 45 45 46 48 50 51 51 51 52 52 52 53 53 52
69 67 65 64 63 62 62 61 60 59 58 57 55 52 52 53 55 57 57 57 57 56 54 53 53 53 52 51 50 50 49 47 44 44 45 45 43 43 42 39 38 40 42 42 43 45 47 50 55 58 60 62 63 63 62 61 60 58 58 57 57 58 60 63 64 63 60 56 54 53 52 51 49 49 49 51 53 54 54 55 54 53 53 54 54 52
69 68 66 65 64 64 63 61 60 59 58 58 56 53 52 53 55 59 60 58 56 56 55 54 52 51 52 52 51 51 51 50 48 46 46 46 46 44 43 41 38 38 40 42 43 44 46 49 53 56 60 62 64 63 62 61 60 60 59 58 57 57 59 62 66 67 64 61 59 57 56 54 53 52 53 54 55 56 57 57 57 56 56 56 54 52
69 68 68 67 66 66 65 63 61 60 59 59 58 56 54 53 55 60 63 62 58 54 53 52 52 52 52 52 52 52 52 52 52 50 48 48 47 45 44 43 40 38 39 41 42 43 45 48 52 55 59 63 64 65 64 63 62 62 61 60 59 59 60 62 65 68 68 65 63 61 59 57 56 55 55 57 57 57 57 57 57 57 57 57 56 54
67 67 67 67 67 66 65 63 62 61 60 61 60 58 56 56 56 59 63 64 62 58 52 49 49 50 51 51 51 51 51 53 54 53 51 50 48 47 45 43 42 41 39 39 40 43 44 47 50 54 58 62 64 65 65 64 64 64 63 63 61 61 61 63 65 67 68 67 65 63 61 59 59 58 58 59 59 59 59 59 58 58 58 58 58 58
63 64 64 65 66 65 64 63 62 62 62 62 61 59 57 57 56 58 61 63 62 60 54 50 49 49 49 50 49 49 51 52 53 54 53 50 49 49 47 45 44 43 41 40 40 41 43 46 49 52 56 60 63 65 65 65 65 65 65 64 63 63 63 64 66 68 69 69 68 66 65 63 61 60 60 60 60 60 61 61 62 62 62 63 63 64
59 59 60 61 62 61 62 63 62 62 63 62 60 59 58 58 57 56 57 58 57 55 52 50 51 51 49 47 46 46 49 50 50 52 52 50 49 49 49 48 46 45 44 43 42 42 43 45 47 50 54 57 61 64 66 66 65 65 65 65 65 65 65 65 66 68 71 72 72 71 69 67 65 64 62 61 60 59 59 59 60 61 63 64 66 66
57 57 57 57 56 56 58 59 59 60 61 60 58 58 59 59 58 56 55 53 50 48 47 47 48 48 46 44 43 43 45 47 48 49 50 50 48 48 47 48 48 47 45 45 44 44 44 44 45 47 51 55 58 62 65 66 66 65 66 66 66 67 67 67 68 69 71 73 74 75 75 74 72 70 68 66 65 63 62 61 61 61 62 63 64 64
55 55 55 54 52 53 55 56 56 58 59 59 57 56 58 58 56 55 54 50 46 44 44 44 45 45 44 43 42 41 41 42 45 46 47 48 48 48 47 48 48 47 46 45 45 45 44 45 46 47 49 53 56 60 64 67 68 67 67 66 67 68 69 69 70 71 72 73 74 76 77 78 78 77 76 74 72 71 69 68 67 66 66 66 67 67
53 53 54 53 52 53 54 55 54 56 58 58 54 52 53 53 52 52 52 49 45 41 42 43 45 45 44 43 42 40 39 39 41 43 45 47 47 48 48 48 48 47 46 46 46 46 46 46 48 49 50 52 55 58 61 66 69 70 69 68 68 69 70 71 72 73 73 74 75 76 77 78 79 80 80 79 78 77 76 75 73 72 72 72 73 73
50 51 53 53 53 54 55 55 55 56 57 56 53 50 49 50 48 47 48 47 45 42 40 42 44 44 44 43 42 41 40 39 40 42 44 46 47 48 48 48 48 48 48 47 47 47 48 48 49 49 50 51 53 56 59 63 67 70 72 71 71 71 72 73 73 74 75 76 76 77 78 79 80 80 81 81 81 81 81 81 80 79 78 78 78 78
48 50 51 52 53 55 56 56 57 57 57 55 52 50 49 47 45 44 44 45 46 45 44 43 44 44 44 44 44 43 42 41 41 43 45 47 48 49 49 48 49 49 49 49 49 49 49 50 50 51 52 52 52 54 57 60 64 68 71 73 74 74 74 75 75 76 77 77 78 78 79 80 81 81 82 82 83 83 84 85 85 85 84 84 84 84
46 48 50 51 53 55 57 58 58 58 58 56 52 50 49 47 45 44 45 45 47 48 48 47 46 46 46 46 46 46 45 44 43 44 46 48 50 50 49 48 49 49 50 50 50 51 51 51 51 52 54 54 53 54 55 58 61 65 68 71 74 76 77 78 78 78 79 79 80 80 81 81 81 82 82 83 84 84 85 86 87 88 88 89 90 90
44 47 49 51 54 56 58 60 60 60 60 58 53 50 49 48 46 45 46 47 48 48 49 50 50 49 48 47 48 48 48 48 47 47 48 50 51 53 52 50 50 50 51 51 52 53 53 53 53 54 55 55 55 55 56 57 59 62 65 68 71 74 76 79 80 81 81 81 82 82 83 83 83 84 84 84 85 86 87 88 89 89 90 91 93 93
42 45 47 50 53 56 59 61 61 60 60 59 55 51 49 48 47 45 46 48 49 50 50 51 52 51 51 50 50 50 50 51 51 52 52 52 54 56 56 55 54 54 54 55 55 55 56 56 56 56 57 57 58 58 59 58 59 60 62 64 67 70 73 75 78 80 81 83 83 84 85 85 85 86 86 87 87 87 88 89 90 90 91 92 93 94
40 43 45 48 51 55 58 60 60 60 60 59 57 53 49 47 47 47 46 47 48 50 51 52 53 54 54 53 53 53 53 53 54 55 55 56 57 58 59 58 58 58 59 59 59 59 59 59 59 59 59 60 61 62 62 61 60 60 60 62 64 66 69 71 74 76 78 80 82 83 84 85 86 87 87 88 88 88 88 89 90 90 91 92 92 93
Wind_Direction
248 248 249 249 248 248 249 251 253 255 256 259 260 259 259 261 262 262 262 261 259 260 262 262 262 262 263 264 265 264 262 259 262 264 261 259 260 261 259 252 249 254 260 263 262 261 265 266 268 271 273 277 275 270 263 249 240 230 225 226 227 227 224 221 221 222 223 227 229 231 234 236 240 243 248 253 255 256 258 259 257 255 256 257 258 257
245 246 247 246 246 246 248 249 252 254 256 258 259 258 258 260 261 264 264 262 259 259 261 262 262 262 263 265 266 267 265 261 260 265 265 263 262 262 261 258 255 254 254 256 256 260 264 253 245 250 267 282 282 274 262 251 246 234 224 225 226 225 226 224 223 223 223 226 229 233 237 239 241 243 244 246 249 252 255 258 258 257 255 252 251 249
243 243 244 245 246 247 249 251 253 255 256 257 259 259 259 259 261 264 266 265 261 259 263 266 265 263 264 266 267 268 268 265 262 264 267 266 266 265 264 262 259 254 251 252 254 257 253 231 218 208 199 251 278 274 265 256 250 240 227 225 226 224 226 226 224 222 221 221 224 228 232 234 237 240 241 242 246 250 252 256 257 253 250 250 251 252
243 243 244 246 248 250 251 252 254 255 256 258 259 259 260 261 262 264 265 266 266 264 263 265 265 266 267 267 267 268 268 268 265 265 267 268 268 267 265 263 261 256 251 250 252 250 242 225 212 202 184 193 250 265 264 257 249 242 232 226 225 226 227 228 226 222 217 215 217 222 226 228 232 237 240 241 244 249 252 253 249 245 248 251 252 254
245 245 246 248 249 251 252 252 254 256 256 257 258 260 261 262 262 264 266 267 267 266 263 264 266 267 268 268 268 268 268 270 269 267 266 267 267 266 265 263 261 257 251 249 249 245 239 227 212 203 190 195 227 243 251 256 252 243 233 228 226 227 228 228 228 224 219 215 214 217 221 224 226 230 234 236 239 244 245 242 238 241 250 254 255 257
245 246 247 249 251 251 252 252 254 255 256 257 259 260 260 262 263 265 266 267 267 266 265 265 267 268 268 269 269 269 269 270 270 267 264 264 264 264 265 264 261 257 250 245 246 245 240 226 212 207 199 208 228 235 242 254 256 245 234 230 229 229 229 230 230 227 224 221 218 218 220 223 226 229 232 231 232 236 236 235 238 246 253 256 257 259
245 247 247 249 251 251 251 253 254 255 256 257 258 258 260 262 264 264 265 266 267 267 267 268 268 268 269 269 269 269 269 269 269 266 264 263 263 264 265 266 263 259 253 245 243 243 238 227 217 210 202 214 231 235 245 254 257 249 237 232 230 229 230 231 232 231 228 226 225 223 224 226 228 232 236 236 235 238 240 243 247 250 250 250 253 258
246 247 247 248 250 251 252 254 254 255 256 257 257 258 261 263 264 264 266 268 269 269 270 271 270 269 269 270 269 269 268 267 267 266 264 263 263 263 264 264 263 261 256 247 241 238 235 228 221 213 209 219 230 233 246 256 257 254 243 235 231 229 230 232 234 234 233 232 231 230 231 232 232 235 239 241 241 242 244 246 246 246 246 246 252 257
248 249 247 248 251 252 253 254 253 255 256 257 258 259 261 262 263 265 268 270 272 272 274 275 274 272 271 271 271 269 267 266 265 265 265 264 262 262 262 262 262 262 257 248 241 237 232 225 221 219 218 224 230 233 244 257 260 258 250 240 233 231 230 231 234 236 237 237 236 235 236 238 239 239 241 242 243 244 244 244 242 242 246 251 257 259
250 250 249 250 253 252 252 252 253 255 256 258 259 261 262 263 264 267 270 272 273 275 277 278 277 275 274 274 273 271 268 267 267 267 266 264 261 261 263 262 260 259 254 247 241 237 232 224 220 222 223 225 230 235 245 262 265 260 253 245 238 233 231 231 233 235 237 238 238 238 238 239 238 238 240 241 242 242 242 241 241 246 253 257 260 260
249 251 251 250 250 250 249 251 254 255 257 260 262 262 264 266 268 270 272 274 276 278 280 280 279 278 277 274 273 272 271 269 268 267 265 263 261 261 262 259 254 251 248 244 240 237 234 227 219 219 222 224 228 236 245 259 264 260 253 248 243 236 232 232 233 234 237 239 239 239 239 238 236 237 238 237 237 236 236 239 244 251 257 259 260 258
247 247 247 246 246 248 250 253 256 257 259 262 264 265 267 270 272 274 276 278 280 282 282 282 281 281 278 274 272 273 274 272 266 261 262 262 258 258 257 251 243 241 241 241 240 236 232 229 221 218 222 221 223 234 245 250 257 259 253 251 249 241 235 234 234 235 236 239 241 242 241 239 237 237 235 233 233 233 237 243 248 252 255 256 257 257
244 243 243 246 248 251 254 256 257 259 261 264 267 269 272 273 274 277 280 281 284 286 286 285 284 282 278 275 274 271 268 267 261 253 252 255 252 250 246 236 232 238 238 236 235 231 227 226 220 217 221 219 218 231 243 246 254 259 256 252 250 244 238 235 234 236 237 238 240 243 243 242 240 237 233 233 236 240 245 250 250 250 251 251 253 255
247 246 247 251 253 254 256 258 260 262 264 267 270 272 274 275 278 280 282 284 287 289 289 288 286 283 278 274 270 263 255 254 257 252 245 244 246 245 236 228 235 243 239 232 229 227 229 229 221 214 217 220 222 230 239 243 250 256 254 251 250 245 240 237 235 236 238 237 238 242 244 244 243 240 236 236 239 243 247 251 249 249 250 250 251 255
250 251 251 252 255 256 258 261 263 264 266 268 270 272 275 277 280 282 284 287 290 291 292 291 287 284 281 272 262 257 252 248 250 249 243 237 239 242 241 238 240 241 238 233 228 224 227 229 224 217 217 223 228 232 236 242 250 256 256 255 254 248 242 240 238 238 238 236 237 242 245 246 245 244 243 242 243 246 250 252 250 248 249 251 254 258
251 253 253 253 255 258 261 262 264 265 267 269 270 273 276 278 280 284 287 290 292 293 293 288 281 279 277 267 255 251 250 247 245 244 243 238 239 243 241 237 236 239 240 235 228 222 216 217 219 218 218 223 229 233 237 244 253 260 261 261 259 251 244 242 242 243 242 238 239 245 249 250 247 246 246 246 247 249 251 252 251 250 251 254 256 260
251 253 253 254 257 259 261 262 264 267 269 270 272 275 277 278 281 285 288 291 293 293 291 282 275 271 268 262 255 248 246 247 245 245 245 241 240 243 238 230 228 236 244 241 236 231 218 211 215 217 222 227 232 237 242 252 261 266 266 264 260 255 250 246 244 246 246 244 244 249 253 254 251 247 246 247 247 248 250 252 253 253 254 257 260 262
252 253 256 258 260 260 262 264 265 268 270 272 275 277 278 280 283 285 289 292 294 293 288 278 271 266 263 261 255 248 248 249 243 243 248 242 236 237 236 228 219 217 224 228 233 236 231 230 232 231 233 237 242 249 256 264 270 272 273 270 262 257 253 249 246 246 248 249 250 252 253 254 254 251 248 248 248 249 252 254 256 257 258 260 262 263
253 256 259 261 261 262 263 266 268 269 271 273 275 277 279 282 284 286 290 292 293 291 284 273 265 258 254 252 250 249 251 251 238 236 248 242 229 226 228 223 213 205 199 198 202 205 209 216 221 222 218 220 229 239 244 241 240 244 251 254 248 241 239 239 239 241 245 250 252 251 251 252 253 253 252 251 250 250 252 254 257 258 260 260 260 260
254 257 259 260 260 261 264 267 270 270 271 273 275 277 280 282 284 287 290 292 291 287 277 267 261 256 250 246 246 247 245 235 221 219 238 242 228 223 224 214 203 198 193 196 198 194 192 192 193 195 196 198 203 207 215 217 216 219 224 225 223 222 225 227 226 227 233 240 248 250 250 251 251 251 252 253 253 252 251 252 254 255 256 256 255 255
254 255 257 258 258 259 262 265 267 268 271 274 276 278 279 281 284 287 290 291 288 280 270 264 260 256 252 244 239 239 237 228 217 211 224 234 228 224 222 211 202 200 201 205 201 194 190 187 186 187 184 183 188 198 208 210 210 213 217 218 216 213 215 221 219 217 222 229 237 244 246 247 247 246 248 249 249 249 249 249 249 250 250 250 251 254
253 253 255 256 256 258 261 263 265 268 271 275 276 278 279 281 284 287 288 288 283 270 261 260 259 253 250 247 239 233 230 230 228 221 219 223 224 224 217 207 207 208 207 210 206 200 195 190 190 188 180 176 184 199 205 204 207 213 215 216 217 211 208 211 216 219 225 230 230 229 231 234 238 240 242 245 245 244 244 244 243 244 245 247 253 259
253 254 256 257 257 259 261 263 265 269 272 274 275 277 279 282 285 286 285 284 275 260 255 257 256 246 238 240 240 235 229 227 229 227 222 218 220 222 213 204 208 212 208 207 207 204 197 190 188 188 185 183 188 199 202 200 205 213 215 216 217 213 208 205 209 220 227 231 229 225 225 227 231 234 236 241 243 242 241 241 241 246 250 254 260 264
254 256 257 258 258 259 261 264 267 270 272 273 274 277 279 282 285 285 282 278 267 255 251 253 251 244 237 234 235 235 229 224 224 225 222 217 214 215 212 208 212 217 214 207 203 200 193 186 184 187 191 193 195 200 201 199 205 211 214 215 214 214 212 207 207 214 220 224 226 227 228 227 229 232 231 232 239 242 244 244 246 250 255 258 261 264
254 255 255 257 258 260 262 264 267 270 272 273 274 277 279 280 284 286 281 273 260 249 244 243 244 245 241 237 234 232 228 225 223 221 221 218 214 214 214 215 218 221 220 211 202 196 190 187 186 189 193 195 197 201 200 198 204 209 212 213 212 212 212 209 210 213 216 220 223 226 229 227 229 235 234 232 237 244 248 249 251 254 256 257 258 260
253 254 255 256 258 260 262 264 267 269 270 271 273 274 276 279 283 283 274 262 251 245 242 239 238 240 240 238 237 234 232 232 228 222 222 224 224 222 219 221 223 224 222 214 204 199 194 192 191 191 193 196 200 204 202 200 204 208 210 211 211 211 209 208 210 214 216 218 220 223 228 229 231 237 240 238 240 246 250 252 254 256 258 258 258 259
253 255 256 257 259 260 262 263 264 265 266 268 270 270 274 279 280 275 266 253 245 243 242 241 238 238 241 242 242 240 237 236 233 228 225 227 230 229 226 226 228 226 224 218 207 203 202 199 196 195 197 199 204 207 205 203 206 209 210 210 210 209 207 206 210 214 216 217 220 224 227 229 232 237 241 242 240 243 248 251 254 257 259 261 261 260
255 256 257 257 258 258 258 259 259 261 264 266 267 268 273 276 273 268 260 248 241 235 230 237 241 241 241 241 241 240 238 235 235 234 231 229 231 231 228 228 228 224 222 219 211 206 206 206 202 200 202 205 207 207 205 204 208 211 212 212 210 208 206 206 211 216 217 219 221 225 228 229 231 235 239 241 241 243 247 250 252 255 258 261 263 261
253 253 253 253 253 253 253 253 255 259 261 263 264 267 272 273 266 262 256 246 239 230 222 228 238 241 241 240 239 241 242 241 240 241 237 233 233 233 230 227 225 221 219 218 214 208 208 209 207 206 209 212 211 209 206 206 207 209 212 213 211 208 206 206 212 217 219 221 222 223 227 229 232 236 239 242 244 246 248 249 250 253 257 260 261 260
247 248 249 249 249 250 251 252 255 258 259 260 261 265 271 269 259 257 255 248 240 231 224 227 234 239 240 240 242 244 246 247 245 245 243 239 236 235 232 229 226 223 219 218 216 211 208 210 211 211 212 214 214 213 211 210 208 208 211 214 212 209 206 207 212 217 219 221 222 223 226 229 233 238 241 243 245 247 248 249 250 251 253 255 256 258
243 244 245 245 245 247 249 251 253 254 256 256 257 264 269 260 250 252 250 245 240 231 225 229 235 240 239 238 240 244 247 248 247 247 247 243 240 238 236 232 230 227 222 218 217 213 210 210 213 214 214 213 214 216 216 215 212 209 210 213 212 210 208 209 212 217 220 221 223 225 227 228 232 237 242 244 245 246 247 248 248 248 248 249 250 252
241 241 243 244 244 246 248 250 250 250 251 251 254 263 262 243 238 246 241 239 239 227 223 230 238 242 242 238 239 242 244 246 246 247 248 244 240 239 238 236 232 229 224 219 216 215 212 212 213 214 216 215 215 217 219 219 217 214 213 213 211 209 209 211 213 216 219 221 223 226 227 227 230 236 242 245 245 244 245 246 246 247 248 249 248 249
241 241 242 244 245 247 248 249 249 249 249 250 254 261 253 227 222 236 237 238 239 228 222 230 237 242 244 241 241 242 243 244 243 242 244 244 242 238 237 237 234 230 225 220 217 216 215 214 213 215 218 219 218 218 221 221 220 219 218 216 213 209 208 211 213 213 214 219 223 226 228 229 231 235 239 243 244 244 246 247 248 248 249 250 249 249
242 243 244 245 246 247 248 248 247 246 247 251 254 258 250 227 217 224 230 233 235 230 226 228 233 239 243 242 241 242 243 244 244 241 241 244 246 242 238 237 235 232 227 222 218 217 217 217 215 215 217 220 220 221 222 223 222 222 221 220 217 211 208 209 212 212 213 217 221 224 227 230 232 234 236 240 243 244 246 248 249 250 251 252 251 252
243 244 245 246 246 247 247 247 246 245 247 250 252 253 248 234 221 220 225 229 230 229 230 231 234 238 240 241 240 240 241 244 245 245 244 247 250 249 243 239 236 235 231 224 220 218 217 217 216 215 216 218 220 222 224 224 224 224 223 222 221 217 213 212 212 213 214 217 220 221 223 226 230 232 234 238 241 244 246 247 248 250 253 254 254 254
242 243 244 245 245 245 246 246 247 248 248 249 249 247 244 239 229 221 223 227 228 229 231 232 234 237 239 240 240 240 241 242 244 247 248 250 251 250 247 243 238 235 232 226 222 220 219 218 217 217 217 218 220 222 224 225 226 225 224 223 223 222 220 217 215 215 216 219 221 223 223 224 227 229 232 235 238 241 245 247 248 250 252 254 255 256
240 241 241 242 243 244 245 246 247 249 249 247 246 242 240 239 233 225 223 227 228 228 230 232 234 236 238 239 239 240 242 242 242 245 247 249 251 249 246 245 241 236 233 229 225 222 221 220 219 219 220 220 220 221 223 225 225 226 225 225 225 225 223 221 219 218 219 221 223 226 228 227 228 230 233 235 238 240 244 247 249 250 251 253 254 256
239 239 240 240 242 243 244 245 245 245 245 243 242 240 239 238 234 228 225 228 229 228 229 232 234 236 238 240 240 240 241 242 242 243 244 246 248 248 246 245 243 239 235 231 228 225 223 221 220 220 220 221 221 221 223 225 226 226 227 227 227 226 225 223 221 220 221 223 226 228 231 231 231 233 235 238 239 241 244 247 250 251 251 252 253 254
240 240 240 240 241 242 242 242 242 242 242 242 241 241 240 237 234 229 227 228 230 229 230 231 234 237 239 241 242 241 241 242 243 243 243 244 246 247 247 245 243 241 238 235 232 230 227 223 222 221 220 221 223 223 223 225 227 228 229 230 229 227 225 224 222 221 222 225 227 229 231 233 234 235 238 240 242 243 245 248 250 251 252 253 254 254
239 239 239 239 239 239 239 240 240 239 240 242 242 242 240 237 233 230 228 229 231 232 233 234 236 238 239 240 241 241 241 242 244 245 245 245 245 246 247 247 244 241 240 239 236 233 231 227 224 223 222 222 224 225 225 225 227 229 230 231 231 230 227 224 223 222 223 225 227 229 231 234 236 238 240 243 244 245 245 247 248 249 251 253 254 255
236 236 236 236 236 237 237 238 239 239 240 241 241 240 238 235 234 232 231 232 233 235 236 237 237 239 240 241 241 241 240 241 243 245 247 247 247 246 246 247 245 242 241 241 239 236 233 230 226 225 224 223 224 226 227 227 228 229 230 231 231 231 230 228 225 224 224 225 226 228 231 234 236 238 241 243 246 247 248 248 250 250 251 252 254 256
232 232 233 234 234 235 235 236 237 238 239 239 238 237 234 233 233 234 233 233 234 235 235 236 236 238 240 241 241 241 240 241 242 244 245 246 246 246 246 246 246 244 242 242 241 239 237 234 230 227 227 226 225 225 228 229 230 230 230 231 231 231 232 231 229 227 226 226 227 228 231 233 235 236 238 240 243 245 247 249 250 252 253 254 256 257
230 230 231 231 231 231 233 233 234 236 237 237 235 234 232 231 231 233 234 234 232 230 229 232 234 236 238 239 240 241 242 241 242 243 244 244 244 243 243 244 245 244 242 242 242 242 241 239 235 232 230 229 227 226 227 229 231 231 231 231 232 232 232 232 232 230 229 229 229 230 232 233 235 236 237 238 239 241 243 245 246 248 250 252 254 257
232 232 232 232 230 229 230 231 231 232 235 237 235 232 232 233 232 232 234 236 233 228 227 231 234 236 238 238 239 240 242 242 243 243 244 244 243 242 241 242 244 244 243 243 243 243 242 241 238 235 233 231 229 228 227 227 229 231 232 232 232 232 233 233 233 233 232 232 232 233 234 235 237 238 238 239 240 240 241 243 245 246 248 249 251 253
232 232 232 233 231 229 229 230 230 231 234 237 237 234 233 234 234 231 232 237 238 234 230 232 235 237 239 241 241 241 242 242 242 243 243 243 243 242 242 243 244 244 244 244 243 243 242 242 240 239 236 233 231 230 228 227 228 230 232 233 233 233 234 234 234 235 235 235 234 235 235 237 238 239 240 241 242 242 243 243 244 246 247 249 251 252
229 229 230 230 230 230 230 231 231 232 234 237 239 237 236 235 235 232 231 233 238 238 235 234 236 239 241 243 243 243 242 242 242 243 243 243 244 243 243 243 243 244 244 244 244 244 243 243 242 241 239 237 234 232 231 230 230 230 232 233 234 234 235 235 236 236 236 237 237 237 238 238 240 241 242 243 244 245 245 246 246 247 248 249 251 252
227 227 227 227 228 228 229 230 232 233 236 238 239 239 238 237 236 234 233 232 235 238 239 238 239 241 243 244 245 245 244 242 241 242 243 244 245 245 244 244 245 245 244 244 245 245 244 244 244 244 243 241 238 236 234 233 232 232 232 233 234 234 235 236 237 237 238 239 239 240 240 240 241 242 244 245 246 247 247 248 249 249 250 251 252 253
225 225 224 224 225 226 227 229 231 234 237 239 239 239 239 239 237 236 236 235 235 237 239 241 242 243 243 244 246 247 246 245 243 242 242 244 246 247 247 246 247 248 247 245 244 245 245 245 245 246 246 245 243 241 238 237 236 235 234 234 234 235 235 236 237 238 239 240 241 242 242 243 243 244 245 246 247 248 249 250 251 252 253 254 255 255
224 224 223 222 223 224 225 228 230 233 236 240 241 239 239 239 238 237 236 237 237 238 239 241 243 243 243 243 243 245 246 246 245 243 242 243 245 247 248 247 247 249 249 247 246 245 245 245 245 246 247 248 247 245 243 241 240 239 238 237 237 236 237 237 238 239 240 241 242 243 244 245 246 246 247 248 249 250 251 252 253 254 255 256 257 257
223 223 223 222 223 224 225 228 231 233 236 241 243 243 241 240 241 239 238 237 239 240 240 241 243 245 245 244 242 242 242 243 244 244 243 242 243 245 246 246 246 247 248 249 249 248 247 246 245 245 246 248 248 248 247 245 244 242 241 241 240 240 240 240 240 240 241 242 243 244 246 247 248 248 249 250 251 252 253 254 255 255 256 257 258 259
223 222 222 222 223 224 226 229 232 235 237 241 245 246 246 244 243 243 242 241 240 241 242 243 244 246 247 247 246 244 242 242 243 243 244 244 244 244 245 245 245 245 245 247 249 249 249 248 247 246 247 248 249 249 249 248 247 246 245 244 244 243 243 243 243 243 243 244 244 245 246 247 249 250 251 252 253 254 254 255 256 257 258 259 260 261
Height
10623 10626 10629 10630 10631 10631 10633 10636 10639 10640 10642 10645 10648 10647 10644 10642 10643 10639 10638 10651 10661 10660 10655 10652 10656 10657 10653 10655 10658 10661 10668 10675 10672 10667 10673 10678 10677 10679 10686 10690 10690 10689 10688 10686 10688 10694 10699 10702 10705 10706 10706 10707 10707 10709 10713 10711 10709 10709 10707 10708 10712 10717 10722 10728 10731 10732 10734 10738 10743 10748 10752 10756 10758 10755 10749 10746 10744 10743 10745 10748 10749 10749 10748 10748 10748 10748
10620 10622 10624 10623 10624 10626 10628 10633 10635 10635 10638 10640 10637 10637 10640 10640 10639 10634 10631 10641 10654 10654 10648 10645 10649 10651 10649 10650 10652 10653 10656 10666 10669 10662 10661 10669 10671 10672 10677 10680 10682 10683 10683 10681 10683 10690 10696 10699 10700 10701 10704 10708 10707 10707 10709 10706 10703 10704 10706 10705 10708 10712 10715 10720 10723 10725 10729 10735 10741 10747 10751 10753 10752 10747 10742 10742 10741 10740 10743 10745 10744 10743 10743 10744 10744 10744
10614 10616 10616 10616 10619 10622 10626 10630 10629 10628 10632 10633 10630 10633 10636 10634 10635 10633 10626 10631 10644 10648 10644 10640 10640 10643 10645 10646 10646 10647 10646 10652 10663 10660 10654 10658 10661 10664 10669 10670 10672 10676 10677 10676 10678 10685 10692 10694 10695 10695 10698 10705 10707 10704 10702 10701 10699 10701 10703 10703 10703 10705 10707 10710 10715 10720 10725 10731 10737 10742 10745 10746 10743 10738 10737 10739 10738 10737 10741 10742 10739 10738 10738 10738 10739 10740
10607 10608 10610 10612 10615 10619 10622 10623 10621 10622 10627 10627 10625 10629 10629 10628 10631 10627 10621 10626 10635 10641 10640 10632 10631 10637 10639 10639 10639 10641 10639 10640 10652 10656 10650 10651 10652 10655 10659 10661 10664 10668 10671 10673 10673 10679 10686 10690 10693 10692 10691 10695 10698 10694 10692 10694 10694 10695 10698 10697 10697 10700 10701 10704 10709 10715 10720 10725 10730 10733 10735 10735 10733 10730 10732 10734 10734 10733 10737 10738 10736 10733 10732 10731 10734 10735
10600 10602 10605 10608 10611 10614 10615 10615 10615 10618 10622 10621 10621 10624 10624 10623 10625 10622 10617 10622 10629 10632 10631 10625 10627 10632 10632 10632 10632 10633 10633 10632 10641 10649 10647 10645 10644 10645 10649 10653 10657 10660 10665 10669 10667 10671 10678 10684 10689 10688 10685 10684 10679 10677 10681 10686 10688 10690 10692 10692 10693 10696 10698 10701 10704 10710 10715 10718 10721 10723 10725 10725 10724 10724 10726 10729 10730 10730 10732 10734 10732 10730 10728 10727 10729 10731
10595 10597 10601 10605 10606 10607 10607 10609 10612 10614 10615 10616 10618 10619 10618 10618 10620 10619 10614 10615 10622 10623 10621 10621 10623 10626 10625 10627 10625 10624 10628 10628 10632 10640 10640 10638 10638 10639 10641 10646 10651 10653 10658 10664 10662 10664 10670 10676 10681 10682 10680 10676 10668 10667 10674 10679 10683 10686 10687 10687 10690 10694 10696 10697 10699 10705 10710 10712 10715 10717 10718 10719 10720 10720 10722 10725 10728 10727 10728 10729 10729 10727 10726 10725 10725 10726
10590 10591 10598 10601 10599 10600 10602 10605 10608 10608 10609 10611 10613 10612 10613 10615 10615 10612 10608 10609 10615 10615 10614 10616 10617 10619 10619 10619 10617 10617 10622 10623 10623 10629 10632 10631 10633 10634 10636 10640 10645 10646 10651 10658 10658 10659 10662 10667 10673 10674 10674 10670 10665 10666 10671 10675 10679 10680 10680 10682 10686 10691 10693 10693 10695 10701 10706 10709 10712 10714 10714 10715 10717 10719 10720 10723 10725 10724 10725 10726 10725 10725 10723 10722 10722 10722
10584 10586 10594 10595 10591 10595 10598 10600 10602 10602 10604 10605 10606 10607 10610 10611 10608 10604 10603 10605 10608 10607 10609 10609 10607 10611 10613 10610 10608 10610 10614 10617 10615 10619 10623 10625 10627 10629 10632 10636 10639 10640 10645 10650 10652 10652 10655 10660 10664 10666 10667 10665 10663 10667 10670 10673 10675 10676 10676 10678 10682 10688 10691 10691 10693 10697 10702 10705 10707 10709 10711 10712 10714 10715 10716 10719 10721 10721 10721 10721 10722 10721 10719 10719 10718 10718
10579 10581 10589 10588 10587 10592 10594 10594 10595 10597 10600 10599 10599 10604 10606 10604 10601 10599 10599 10601 10600 10601 10605 10603 10597 10602 10607 10603 10600 10601 10606 10609 10608 10611 10616 10619 10621 10623 10626 10632 10635 10636 10638 10642 10644 10645 10649 10654 10656 10659 10662 10661 10660 10663 10665 10669 10673 10673 10673 10674 10679 10684 10688 10690 10691 10693 10697 10700 10701 10704 10706 10708 10710 10710 10712 10714 10716 10717 10716 10717 10717 10716 10715 10715 10714 10714
10575 10576 10583 10584 10583 10587 10587 10587 10590 10593 10595 10592 10593 10599 10598 10595 10595 10595 10597 10596 10594 10596 10601 10596 10589 10593 10600 10597 10592 10592 10598 10601 10601 10604 10610 10612 10614 10616 10621 10628 10632 10632 10632 10634 10637 10639 10642 10647 10650 10654 10657 10657 10655 10658 10661 10665 10668 10670 10669 10671 10676 10681 10685 10688 10689 10691 10693 10694 10696 10698 10700 10703 10704 10705 10707 10709 10711 10712 10712 10713 10712 10712 10711 10710 10709 10711
10570 10572 10578 10580 10578 10579 10581 10582 10586 10589 10589 10586 10588 10591 10590 10589 10590 10591 10593 10590 10589 10593 10594 10588 10583 10587 10592 10590 10586 10586 10590 10594 10595 10598 10603 10605 10608 10611 10615 10621 10626 10626 10625 10626 10630 10634 10637 10642 10645 10649 10652 10652 10653 10656 10658 10659 10661 10665 10667 10669 10674 10679 10683 10686 10688 10690 10690 10690 10692 10694 10697 10700 10701 10702 10704 10706 10706 10707 10708 10709 10708 10709 10707 10703 10704 10708
10564 10569 10573 10572 10572 10573 10576 10580 10581 10583 10584 10582 10582 10584 10584 10585 10585 10585 10586 10584 10585 10588 10585 10581 10579 10581 10583 10581 10581 10583 10583 10587 10589 10591 10596 10599 10602 10605 10608 10613 10618 10618 10619 10621 10624 10628 10632 10636 10640 10644 10647 10648 10651 10653 10653 10654 10657 10662 10666 10668 10673 10677 10681 10683 10686 10689 10689 10688 10690 10692 10695 10698 10699 10700 10702 10703 10703 10702 10704 10705 10705 10705 10702 10699 10700 10703
10559 10565 10566 10566 10569 10571 10573 10576 10576 10577 10578 10577 10576 10578 10579 10579 10579 10580 10579 10577 10581 10582 10577 10575 10575 10574 10574 10574 10577 10579 10576 10578 10582 10585 10591 10595 10597 10600 10602 10607 10611 10612 10615 10618 10619 10623 10627 10631 10636 10641 10644 10646 10650 10649 10647 10651 10657 10660 10664 10668 10672 10675 10678 10681 10684 10687 10687 10687 10689 10691 10692 10694 10695 10695 10697 10698 10698 10698 10700 10702 10702 10701 10698 10697 10697 10698
10555 10560 10563 10563 10564 10566 10568 10569 10570 10572 10574 10572 10572 10573 10574 10573 10572 10574 10573 10572 10575 10576 10571 10569 10569 10568 10568 10570 10572 10572 10570 10573 10576 10580 10586 10591 10594 10596 10598 10603 10606 10607 10611 10614 10616 10621 10625 10630 10635 10640 10642 10644 10648 10647 10646 10651 10657 10659 10663 10668 10672 10674 10675 10679 10683 10684 10684 10684 10686 10688 10688 10689 10689 10689 10691 10693 10693 10694 10696 10697 10697 10696 10694 10694 10693 10693
10551 10555 10558 10558 10558 10560 10564 10564 10565 10567 10569 10569 10567 10568 10569 10567 10566 10567 10567 10567 10569 10569 10567 10565 10563 10562 10564 10566 10565 10565 10567 10569 10572 10577 10582 10587 10591 10592 10594 10598 10602 10604 10607 10610 10616 10621 10626 10632 10637 10641 10644 10646 10649 10650 10651 10655 10659 10661 10664 10668 10672 10673 10674 10677 10679 10680 10680 10680 10681 10683 10683 10683 10683 10683 10686 10687 10688 10689 10690 10691 10691 10691 10690 10689 10689 10689
10546 10548 10549 10551 10554 10557 10559 10559 10560 10562 10564 10564 10562 10563 10564 10562 10561 10561 10561 10562 10563 10564 10564 10560 10558 10559 10561 10562 10560 10560 10562 10564 10569 10574 10578 10582 10586 10588 10590 10594 10597 10601 10604 10608 10615 10623 10630 10636 10640 10643 10647 10649 10651 10654 10657 10660 10663 10664 10666 10668 10670 10671 10673 10675 10675 10674 10675 10675 10676 10676 10676 10676 10676 10676 10678 10680 10682 10683 10683 10684 10684 10685 10685 10685 10685 10685
10541 10542 10542 10546 10551 10554 10554 10553 10556 10559 10559 10558 10558 10559 10558 10556 10556 10557 10556 10557 10557 10559 10558 10555 10554 10555 10556 10558 10559 10558 10558 10561 10566 10570 10573 10577 10580 10583 10587 10590 10596 10602 10605 10608 10614 10622 10631 10637 10641 10645 10649 10652 10655 10658 10662 10666 10667 10666 10666 10667 10667 10669 10671 10671 10671 10672 10672 10670 10669 10669 10669 10669 10669 10670 10671 10673 10674 10675 10676 10677 10678 10679 10680 10681 10680 10680
10535 10535 10537 10542 10547 10548 10548 10548 10552 10555 10553 10552 10553 10553 10551 10550 10552 10552 10552 10551 10552 10553 10552 10549 10550 10551 10552 10555 10556 10555 10556 10559 10563 10566 10569 10573 10576 10579 10582 10585 10592 10598 10602 10606 10613 10620 10628 10635 10640 10645 10649 10654 10658 10660 10663 10667 10668 10666 10666 10666 10666 10666 10665 10663 10665 10669 10668 10664 10661 10661 10661 10662 10662 10663 10664 10665 10667 10668 10670 10670 10671 10673 10674 10675 10674 10674
10529 10530 10533 10537 10540 10541 10542 10544 10547 10550 10548 10547 10548 10547 10546 10545 10546 10547 10547 10547 10546 10547 10547 10544 10544 10547 10550 10551 10551 10551 10554 10558 10561 10564 10566 10569 10572 10574 10576 10580 10583 10588 10593 10598 10604 10610 10618 10625 10631 10636 10640 10644 10648 10652 10656 10659 10660 10659 10660 10661 10659 10657 10653 10650 10653 10659 10660 10657 10653 10653 10654 10655 10656 10656 10657 10658 10659 10661 10662 10663 10664 10666 10667 10668 10668 10668
10523 10527 10528 10531 10534 10534 10536 10539 10541 10543 10542 10542 10543 10543 10542 10541 10540 10541 10543 10542 10541 10542 10542 10540 10539 10543 10547 10548 10547 10548 10552 10555 10558 10559 10561 10564 10568 10569 10572 10576 10578 10582 10588 10593 10597 10600 10605 10610 10616 10621 10625 10630 10635 10640 10643 10645 10647 10648 10649 10646 10642 10641 10640 10640 10643 10647 10650 10650 10647 10645 10646 10647 10648 10649 10649 10650 10651 10653 10654 10656 10657 10659 10661 10661 10661 10662
10518 10522 10522 10525 10528 10529 10531 10534 10534 10535 10536 10537 10538 10538 10538 10537 10536 10537 10538 10537 10536 10537 10537 10536 10536 10540 10544 10545 10545 10546 10548 10551 10553 10554 10556 10559 10563 10565 10568 10572 10575 10578 10582 10588 10593 10597 10599 10603 10606 10608 10611 10616 10624 10628 10629 10633 10637 10636 10633 10628 10626 10631 10636 10636 10637 10637 10638 10640 10640 10637 10637 10638 10641 10643 10642 10642 10644 10645 10646 10648 10650 10652 10654 10655 10655 10655
10510 10514 10516 10520 10523 10524 10526 10528 10526 10528 10532 10533 10532 10532 10532 10533 10532 10533 10533 10532 10531 10531 10532 10532 10534 10537 10540 10541 10543 10545 10546 10547 10548 10550 10553 10556 10559 10562 10565 10569 10572 10575 10580 10585 10588 10590 10593 10597 10600 10602 10603 10604 10608 10613 10616 10621 10623 10619 10617 10618 10621 10629 10633 10633 10634 10633 10631 10631 10632 10629 10629 10631 10634 10635 10634 10634 10636 10638 10640 10642 10644 10646 10647 10648 10648 10649
10503 10510 10512 10514 10518 10519 10520 10520 10520 10523 10527 10527 10527 10526 10526 10527 10528 10527 10527 10527 10527 10527 10528 10528 10530 10534 10535 10535 10538 10541 10543 10544 10543 10545 10549 10554 10557 10559 10562 10565 10568 10573 10577 10579 10580 10582 10587 10591 10594 10598 10598 10596 10596 10599 10604 10609 10610 10608 10610 10615 10621 10625 10627 10628 10629 10630 10628 10626 10625 10623 10622 10624 10626 10625 10623 10625 10629 10632 10635 10637 10639 10640 10641 10642 10642 10643
10500 10506 10507 10508 10511 10512 10513 10514 10515 10518 10521 10521 10521 10521 10521 10521 10522 10521 10520 10522 10523 10523 10524 10524 10526 10529 10529 10529 10532 10534 10537 10539 10539 10540 10544 10549 10552 10554 10556 10559 10562 10566 10570 10572 10574 10578 10582 10585 10586 10589 10591 10591 10590 10591 10594 10599 10600 10601 10605 10610 10616 10620 10622 10622 10623 10625 10624 10620 10618 10617 10617 10620 10621 10619 10617 10620 10624 10627 10630 10633 10635 10636 10636 10637 10638 10639
10495 10499 10500 10502 10504 10505 10507 10509 10511 10512 10514 10515 10516 10516 10515 10515 10515 10514 10514 10516 10518 10518 10519 10520 10522 10524 10524 10525 10527 10528 10531 10534 10536 10537 10540 10544 10547 10549 10551 10553 10556 10559 10563 10567 10570 10574 10577 10579 10580 10581 10584 10585 10585 10584 10587 10591 10593 10596 10600 10605 10609 10613 10616 10618 10620 10622 10619 10615 10613 10613 10614 10617 10618 10616 10615 10618 10622 10625 10627 10629 10630 10631 10631 10632 10633 10634
10487 10491 10493 10496 10498 10498 10501 10505 10506 10507 10507 10508 10511 10511 10510 10510 10510 10509 10509 10510 10512 10513 10513 10516 10519 10521 10520 10520 10522 10524 10527 10529 10531 10534 10536 10539 10541 10544 10547 10550 10552 10554 10558 10562 10566 10570 10574 10575 10575 10576 10577 10579 10579 10580 10584 10587 10589 10592 10596 10600 10603 10607 10611 10615 10618 10619 10616 10612 10611 10611 10612 10615 10616 10613 10614 10618 10621 10623 10624 10625 10626 10627 10627 10627 10628 10630
10480 10484 10488 10490 10491 10493 10497 10500 10500 10500 10501 10503 10505 10505 10505 10506 10505 10505 10506 10506 10507 10508 10510 10513 10516 10516 10515 10516 10518 10521 10522 10524 10526 10530 10533 10534 10537 10540 10543 10546 10548 10551 10554 10558 10562 10566 10569 10570 10571 10572 10573 10574 10575 10577 10581 10584 10586 10589 10592 10596 10599 10603 10608 10612 10615 10613 10610 10609 10609 10609 10611 10613 10614 10612 10613 10616 10618 10619 10620 10621 10622 10622 10622 10623 10623 10624
10475 10478 10480 10483 10485 10488 10492 10493 10492 10493 10495 10497 10498 10498 10501 10502 10501 10501 10503 10502 10502 10505 10509 10512 10512 10511 10511 10512 10513 10516 10518 10520 10523 10526 10529 10531 10533 10536 10539 10542 10545 10548 10550 10553 10557 10560 10562 10565 10567 10568 10568 10569 10571 10573 10576 10579 10582 10584 10588 10592 10596 10600 10605 10608 10608 10605 10605 10607 10607 10607 10608 10610 10611 10611 10611 10613 10614 10615 10616 10616 10617 10618 10618 10618 10618 10619
10468 10469 10472 10476 10479 10482 10485 10486 10486 10488 10490 10491 10491 10493 10495 10497 10496 10497 10497 10497 10499 10502 10505 10507 10507 10506 10507 10508 10509 10512 10514 10517 10520 10522 10525 10528 10529 10531 10534 10537 10541 10544 10546 10549 10552 10555 10558 10560 10563 10564 10564 10565 10567 10569 10572 10574 10576 10580 10583 10588 10592 10596 10600 10601 10599 10600 10603 10605 10604 10605 10606 10607 10608 10608 10608 10609 10610 10611 10611 10612 10613 10613 10613 10613 10613 10614
10458 10462 10466 10470 10473 10475 10478 10481 10482 10483 10485 10486 10486 10487 10490 10492 10492 10492 10492 10493 10496 10498 10499 10500 10501 10501 10502 10503 10505 10508 10511 10513 10516 10518 10520 10523 10525 10527 10529 10533 10537 10540 10543 10545 10547 10550 10553 10555 10557 10559 10560 10560 10562 10565 10567 10569 10572 10575 10579 10583 10588 10592 10594 10594 10594 10596 10599 10600 10601 10602 10603 10604 10605 10605 10605 10605 10605 10606 10607 10607 10608 10608 10608 10608 10608 10610
10452 10456 10459 10462 10466 10468 10471 10475 10477 10477 10479 10480 10480 10483 10486 10488 10488 10488 10488 10489 10491 10492 10493 10494 10495 10497 10499 10500 10501 10504 10506 10509 10512 10514 10516 10519 10521 10523 10525 10528 10532 10536 10539 10540 10542 10545 10548 10551 10552 10553 10554 10556 10558 10560 10562 10565 10567 10571 10574 10578 10582 10586 10588 10590 10591 10593 10595 10596 10597 10598 10598 10601 10602 10601 10600 10599 10599 10600 10601 10602 10602 10602 10602 10603 10604 10605
10447 10450 10452 10454 10459 10462 10465 10469 10470 10471 10473 10473 10475 10479 10482 10484 10483 10483 10483 10485 10486 10488 10488 10490 10492 10493 10494 10496 10498 10500 10502 10505 10507 10510 10512 10514 10516 10519 10521 10523 10527 10530 10533 10535 10537 10540 10543 10546 10548 10549 10550 10552 10553 10555 10557 10560 10563 10566 10569 10573 10577 10580 10583 10585 10587 10589 10590 10590 10591 10592 10593 10596 10597 10597 10596 10594 10593 10594 10595 10596 10597 10597 10597 10597 10598 10599
10440 10444 10446 10448 10453 10456 10459 10462 10464 10465 10465 10466 10470 10474 10476 10479 10479 10478 10479 10481 10483 10484 10486 10487 10488 10488 10490 10493 10494 10495 10498 10500 10503 10505 10507 10509 10511 10514 10516 10518 10521 10525 10528 10530 10532 10535 10538 10541 10543 10545 10546 10547 10549 10551 10553 10556 10559 10561 10564 10568 10571 10574 10577 10579 10580 10582 10583 10583 10584 10585 10587 10589 10590 10591 10591 10589 10588 10588 10589 10590 10592 10592 10591 10591 10592 10593
10433 10436 10439 10443 10447 10449 10452 10455 10457 10458 10457 10460 10465 10468 10469 10472 10473 10473 10475 10476 10477 10480 10482 10483 10483 10483 10486 10489 10490 10491 10493 10495 10497 10500 10503 10505 10507 10509 10512 10514 10516 10520 10522 10525 10527 10530 10532 10535 10538 10541 10542 10543 10545 10547 10548 10551 10555 10557 10560 10563 10565 10568 10571 10572 10573 10575 10576 10577 10578 10580 10581 10582 10583 10584 10585 10584 10583 10583 10583 10585 10586 10586 10585 10586 10586 10587
10425 10428 10433 10437 10439 10441 10445 10447 10448 10449 10452 10455 10458 10459 10462 10465 10467 10470 10470 10470 10472 10477 10479 10479 10479 10480 10482 10484 10486 10487 10489 10491 10493 10496 10498 10500 10502 10504 10507 10509 10512 10514 10516 10519 10522 10524 10526 10529 10533 10535 10537 10539 10541 10542 10544 10547 10550 10552 10555 10557 10559 10562 10565 10567 10568 10569 10570 10572 10573 10574 10575 10575 10576 10577 10577 10577 10577 10577 10578 10579 10579 10579 10580 10580 10580 10582
10418 10421 10425 10429 10431 10434 10437 10438 10440 10443 10446 10449 10450 10452 10455 10458 10462 10464 10465 10465 10468 10472 10474 10474 10475 10476 10478 10480 10482 10483 10485 10487 10490 10492 10493 10495 10497 10499 10501 10504 10506 10508 10510 10513 10516 10518 10520 10523 10527 10530 10532 10534 10537 10538 10540 10542 10545 10547 10549 10552 10554 10556 10559 10562 10563 10564 10566 10567 10568 10568 10568 10568 10569 10570 10571 10571 10571 10572 10572 10572 10573 10574 10575 10574 10574 10577
10409 10413 10417 10420 10423 10426 10428 10431 10434 10437 10439 10441 10443 10445 10448 10451 10454 10458 10459 10459 10462 10466 10468 10469 10470 10472 10474 10476 10477 10479 10480 10483 10486 10487 10489 10490 10492 10493 10496 10499 10501 10502 10505 10508 10510 10512 10515 10517 10521 10524 10526 10529 10531 10533 10535 10537 10540 10542 10544 10546 10548 10551 10553 10556 10558 10559 10560 10562 10562 10562 10562 10563 10563 10564 10565 10565 10566 10567 10567 10567 10568 10570 10570 10568 10570 10573
10401 10405 10409 10412 10415 10418 10420 10424 10427 10428 10430 10433 10436 10438 10441 10443 10446 10451 10453 10454 10457 10460 10462 10464 10466 10468 10469 10471 10473 10475 10477 10479 10481 10482 10484 10485 10486 10488 10491 10493 10496 10498 10499 10502 10504 10506 10508 10511 10515 10518 10520 10522 10524 10527 10530 10532 10534 10536 10538 10540 10542 10545 10547 10549 10551 10553 10555 10556 10557 10557 10557 10558 10558 10559 10559 10559 10560 10562 10563 10563 10564 10564 10564 10564 10566 10569
10393 10398 10401 10404 10407 10409 10412 10416 10419 10421 10423 10425 10428 10431 10433 10436 10439 10443 10446 10449 10452 10455 10457 10459 10461 10463 10464 10466 10468 10470 10472 10474 10474 10476 10478 10480 10482 10484 10486 10489 10491 10493 10495 10497 10499 10501 10503 10505 10508 10511 10513 10515 10517 10521 10524 10526 10529 10530 10532 10534 10536 10539 10541 10543 10545 10547 10549 10550 10551 10552 10552 10552 10553 10554 10554 10553 10554 10556 10558 10558 10558 10558 10559 10560 10562 10563
10385 10388 10392 10395 10397 10400 10404 10408 10411 10414 10416 10417 10420 10423 10426 10430 10433 10436 10440 10443 10446 10449 10453 10455 10457 10458 10460 10460 10462 10465 10467 10468 10468 10470 10472 10475 10478 10480 10482 10484 10486 10488 10490 10492 10493 10494 10496 10499 10502 10504 10506 10509 10511 10514 10517 10520 10522 10524 10526 10527 10529 10532 10534 10536 10538 10540 10542 10543 10545 10545 10546 10547 10547 10548 10548 10547 10549 10551 10551 10552 10552 10553 10554 10555 10556 10556
10375 10378 10382 10385 10388 10392 10397 10400 10403 10406 10407 10409 10413 10416 10419 10423 10427 10431 10434 10437 10440 10444 10448 10451 10452 10453 10454 10455 10458 10460 10462 10462 10463 10465 10467 10471 10473 10475 10477 10478 10480 10482 10484 10485 10486 10488 10489 10492 10494 10497 10500 10502 10505 10508 10510 10513 10516 10517 10519 10521 10523 10524 10527 10529 10532 10534 10535 10536 10538 10539 10539 10540 10541 10541 10542 10542 10543 10544 10545 10546 10546 10547 10548 10548 10548 10549
10367 10370 10374 10376 10380 10386 10390 10392 10396 10398 10399 10402 10406 10409 10412 10417 10421 10425 10428 10432 10435 10439 10442 10445 10446 10447 10449 10451 10453 10455 10456 10457 10459 10460 10462 10465 10468 10469 10470 10472 10474 10476 10478 10479 10481 10482 10484 10485 10488 10490 10493 10496 10499 10501 10503 10506 10508 10510 10512 10514 10516 10517 10519 10522 10524 10526 10528 10529 10530 10531 10532 10533 10534 10534 10535 10536 10537 10537 10538 10539 10539 10540 10541 10541 10541 10541
10360 10364 10366 10369 10375 10380 10383 10386 10389 10391 10392 10395 10399 10403 10406 10410 10415 10419 10422 10426 10430 10434 10437 10438 10440 10441 10444 10446 10448 10449 10451 10452 10454 10455 10457 10459 10461 10462 10464 10465 10467 10469 10472 10474 10475 10477 10478 10480 10482 10485 10487 10489 10492 10494 10497 10499 10501 10502 10505 10507 10509 10511 10512 10514 10516 10518 10520 10522 10523 10524 10525 10525 10526 10527 10528 10529 10529 10530 10531 10531 10532 10533 10534 10534 10534 10534
10356 10360 10362 10365 10370 10374 10376 10380 10383 10385 10386 10389 10393 10397 10400 10404 10410 10414 10417 10420 10424 10428 10431 10433 10434 10436 10438 10440 10442 10444 10445 10447 10448 10450 10451 10453 10455 10456 10458 10459 10461 10463 10466 10468 10469 10470 10472 10474 10475 10477 10480 10482 10484 10487 10490 10492 10493 10495 10497 10500 10502 10504 10506 10507 10509 10510 10512 10514 10515 10517 10517 10518 10519 10520 10520 10521 10522 10522 10523 10524 10524 10525 10526 10526 10527 10527
10351 10355 10358 10361 10366 10369 10371 10374 10378 10380 10381 10383 10387 10392 10396 10400 10405 10409 10413 10415 10419 10422 10425 10427 10429 10431 10433 10434 10437 10438 10440 10442 10443 10445 10446 10447 10449 10451 10453 10454 10455 10457 10459 10461 10462 10464 10465 10466 10467 10469 10471 10474 10477 10479 10482 10484 10486 10487 10490 10492 10495 10496 10498 10500 10501 10503 10504 10506 10507 10508 10510 10510 10511 10512 10513 10514 10514 10515 10515 10516 10516 10517 10518 10518 10518 10518
10345 10349 10353 10357 10361 10364 10366 10369 10372 10374 10376 10378 10382 10388 10392 10396 10400 10404 10408 10412 10414 10417 10420 10422 10424 10426 10428 10430 10431 10433 10435 10436 10438 10439 10440 10442 10443 10445 10447 10448 10449 10451 10452 10454 10456 10457 10459 10460 10461 10462 10464 10466 10469 10472 10475 10477 10479 10480 10482 10485 10487 10489 10490 10492 10494 10495 10496 10498 10499 10500 10502 10503 10503 10504 10505 10506 10506 10507 10507 10508 10508 10509 10509 10509 10510 10510
10340 10344 10348 10352 10356 10359 10361 10364 10366 10369 10371 10374 10378 10383 10387 10391 10395 10400 10404 10407 10410 10412 10414 10416 10418 10421 10423 10425 10426 10427 10429 10431 10432 10434 10435 10436 10437 10439 10440 10442 10443 10445 10446 10448 10449 10451 10452 10453 10454 10455 10457 10459 10462 10465 10467 10469 10471 10473 10475 10477 10480 10481 10483 10484 10486 10487 10488 10490 10491 10492 10493 10494 10496 10497 10497 10498 10498 10498 10499 10499 10500 10501 10501 10501 10501 10501
10337 10340 10343 10347 10350 10354 10357 10359 10362 10364 10366 10369 10373 10378 10381 10385 10390 10394 10398 10401 10404 10406 10408 10410 10413 10416 10418 10419 10421 10422 10424 10425 10427 10428 10430 10431 10432 10433 10434 10436 10437 10438 10440 10441 10443 10444 10445 10446 10447 10448 10450 10452 10455 10457 10459 10461 10463 10465 10467 10469 10471 10473 10475 10476 10478 10479 10480 10482 10483 10484 10485 10486 10487 10488 10489 10490 10490 10490 10490 10491 10491 10491 10492 10492 10492 10492
10332 10335 10339 10342 10345 10348 10351 10354 10357 10360 10361 10363 10368 10373 10377 10380 10384 10389 10392 10395 10397 10400 10403 10405 10407 10409 10411 10413 10415 10417 10418 10419 10421 10422 10424 10425 10426 10427 10428 10429 10431 10432 10433 10435 10436 10437 10438 10439 10440 10441 10443 10445 10447 10449 10451 10453 10455 10457 10459 10461 10463 10465 10466 10468 10469 10471 10472 10473 10475 10476 10477 10478 10479 10480 10480 10481 10481 10481 10482 10482 10482 10482 10482 10483 10482 10482
10328 10331 10334 10338 10341 10344 10347 10349 10352 10355 10357 10359 10362 10367 10372 10375 10379 10383 10386 10389 10391 10394 10397 10399 10400 10402 10404 10406 10408 10410 10411 10412 10413 10415 10416 10418 10419 10420 10420 10422 10424 10426 10427 10428 10429 10430 10431 10432 10433 10434 10436 10437 10438 10440 10442 10444 10446 10448 10451 10453 10454 10456 10457 10459 10461 10462 10464 10465 10466 10467 10468 10468 10469 10470 10471 10471 10472 10472 10472 10472 10472 10473 10473 10473 10472 10472
10324 10327 10330 10334 10337 10340 10343 10345 10348 10351 10353 10355 10357 10361 10366 10370 10374 10377 10380 10383 10386 10388 10390 10392 10394 10395 10397 10398 10400 10402 10403 10405 10406 10407 10409 10410 10411 10412 10413 10415 10416 10418 10419 10420 10421 10422 10423 10424 10425 10427 10428 10429 10430 10432 10434 10435 10438 10440 10442 10444 10445 10447 10449 10450 10452 10453 10455 10456 10457 10458 10458 10459 10459 10460 10461 10462 10462 10462 10463 10462 10462 10462 10462 10462 10462 10462